When you browse on this site, cookies collect data to enhance your experience and personalize the content and advertising you see.
Visit our Privacy Policy to learn more. By continuing to use the site, you agree to this use of cookies and data.
  • în România
  • Lista ţărilor
  • Pe 7 zile
  • Temperatura apei
  • Hartă satelitară
  • Meteo pe hartă
  • Widget-uri
  • user-avatar
    Intrare

    Meteo pe oră la Maturín

    Astăzi, 16 Decembrie, Duminică

    Timp Temperatura Precipitaţii Vânt Presiune Umiditate
    00:00 +23°C° 0 mm 1 m/s 758 mmHg 92%
    01:00 +23°C° 0 mm 1 m/s 758 mmHg 94%
    02:00 +23°C° 0 mm 1 m/s 758 mmHg 96%
    03:00 +23°C° 0 mm 1 m/s 758 mmHg 96%
    04:00 +23°C° 0 mm 1 m/s 758 mmHg 97%
    05:00 +23°C° 0 mm 1 m/s 758 mmHg 97%
    06:00 +24°C° 0 mm 1 m/s 758 mmHg 93%
    07:00 +25°C° 0 mm 1 m/s 759 mmHg 88%
    08:00 +26°C° 0 mm 1 m/s 759 mmHg 84%
    09:00 +28°C° 0.1 mm 2 m/s 759 mmHg 77%
    10:00 +29°C° 0.1 mm 2 m/s 759 mmHg 70%
    11:00 +31°C° 0.1 mm 2 m/s 759 mmHg 63%
    12:00 +31°C° 0.4 mm 2 m/s 758 mmHg 64%
    13:00 +31°C° 0.4 mm 2 m/s 758 mmHg 65%
    14:00 +31°C° 0.4 mm 3 m/s 757 mmHg 66%
    15:00 +30°C° 0.4 mm 3 m/s 756 mmHg 70%
    16:00 +29°C° 0.4 mm 2 m/s 756 mmHg 74%
    17:00 +28°C° 0.4 mm 2 m/s 756 mmHg 78%
    18:00 +27°C° 0 mm 2 m/s 756 mmHg 82%
    19:00 +26°C° 0 mm 2 m/s 757 mmHg 87%
    20:00 +25°C° 0 mm 2 m/s 757 mmHg 91%
    21:00 +25°C° 0 mm 2 m/s 757 mmHg 93%
    22:00 +24°C° 0 mm 2 m/s 757 mmHg 94%
    23:00 +24°C° 0 mm 1 m/s 758 mmHg 95%

    Mâine, 17 Decembrie, Luni

    Timp Temperatura Precipitaţii Vânt Presiune Umiditate
    00:00 +24°C° 0 mm 1 m/s 757 mmHg 96%
    01:00 +24°C° 0 mm 1 m/s 757 mmHg 97%
    02:00 +24°C° 0 mm 1 m/s 757 mmHg 98%
    03:00 +24°C° 0.2 mm 1 m/s 757 mmHg 98%
    04:00 +24°C° 0.2 mm 1 m/s 757 mmHg 97%
    05:00 +24°C° 0.2 mm 1 m/s 757 mmHg 97%
    06:00 +25°C° 0.1 mm 1 m/s 757 mmHg 95%
    07:00 +25°C° 0.1 mm 1 m/s 758 mmHg 93%
    08:00 +26°C° 0.1 mm 1 m/s 758 mmHg 90%
    09:00 +28°C° 0.1 mm 2 m/s 758 mmHg 81%
    10:00 +29°C° 0.1 mm 2 m/s 758 mmHg 72%
    11:00 +31°C° 0.1 mm 2 m/s 758 mmHg 62%
    12:00 +32°C° 0 mm 2 m/s 757 mmHg 57%
    13:00 +34°C° 0 mm 3 m/s 756 mmHg 52%
    14:00 +35°C° 0 mm 3 m/s 755 mmHg 48%
    15:00 +34°C° 0 mm 3 m/s 755 mmHg 53%
    16:00 +33°C° 0 mm 3 m/s 755 mmHg 58%
    17:00 +31°C° 0 mm 3 m/s 754 mmHg 63%
    18:00 +29°C° 0 mm 3 m/s 755 mmHg 71%
    19:00 +28°C° 0 mm 2 m/s 756 mmHg 78%
    20:00 +26°C° 0 mm 2 m/s 756 mmHg 86%
    21:00 +26°C° 0 mm 2 m/s 756 mmHg 88%
    22:00 +25°C° 0 mm 2 m/s 757 mmHg 91%
    23:00 +25°C° 0 mm 2 m/s 757 mmHg 93%

    Poimâine, 18 Decembrie, Marţi

    Timp Temperatura Precipitaţii Vânt Presiune Umiditate
    00:00 +25°C° 0 mm 2 m/s 757 mmHg 94%
    01:00 +24°C° 0 mm 1 m/s 756 mmHg 96%
    02:00 +24°C° 0 mm 1 m/s 756 mmHg 97%
    03:00 +24°C° 0.2 mm 1 m/s 756 mmHg 97%
    04:00 +24°C° 0.2 mm 1 m/s 756 mmHg 98%
    05:00 +24°C° 0.2 mm 1 m/s 756 mmHg 98%
    06:00 +25°C° 0 mm 1 m/s 756 mmHg 95%
    07:00 +25°C° 0 mm 1 m/s 757 mmHg 92%
    08:00 +26°C° 0 mm 1 m/s 758 mmHg 90%
    09:00 +28°C° 0.1 mm 2 m/s 758 mmHg 80%
    10:00 +30°C° 0.1 mm 2 m/s 758 mmHg 70%
    11:00 +32°C° 0.1 mm 2 m/s 758 mmHg 60%
    12:00 +32°C° 0.1 mm 2 m/s 757 mmHg 58%
    13:00 +34°C° 0.1 mm 3 m/s 756 mmHg 55%
    14:00 +34°C° 0.1 mm 3 m/s 755 mmHg 52%
    15:00 +34°C° 0.2 mm 3 m/s 755 mmHg 57%
    16:00 +33°C° 0.2 mm 3 m/s 754 mmHg 61%
    17:00 +31°C° 0.2 mm 3 m/s 754 mmHg 66%
    18:00 +29°C° 0 mm 2 m/s 755 mmHg 73%
    19:00 +28°C° 0 mm 2 m/s 755 mmHg 79%
    20:00 +26°C° 0 mm 2 m/s 756 mmHg 86%
    21:00 +26°C° 0 mm 2 m/s 756 mmHg 89%
    22:00 +25°C° 0 mm 2 m/s 756 mmHg 92%
    23:00 +25°C° 0 mm 1 m/s 757 mmHg 95%

    19 Decembrie, Miercuri

    Timp Temperatura Precipitaţii Vânt Presiune Umiditate
    00:00 +25°C° 0 mm 1 m/s 756 mmHg 96%
    01:00 +25°C° 0 mm 1 m/s 756 mmHg 97%
    02:00 +24°C° 0 mm 1 m/s 756 mmHg 98%
    03:00 +24°C° 0 mm 1 m/s 756 mmHg 98%
    04:00 +24°C° 0 mm 1 m/s 756 mmHg 98%
    05:00 +24°C° 0 mm 1 m/s 756 mmHg 98%
    06:00 +25°C° 0 mm 1 m/s 757 mmHg 95%
    07:00 +26°C° 0 mm 1 m/s 757 mmHg 93%
    08:00 +26°C° 0 mm 1 m/s 758 mmHg 90%
    09:00 +28°C° 0.1 mm 2 m/s 758 mmHg 82%
    10:00 +30°C° 0.1 mm 2 m/s 758 mmHg 74%
    11:00 +31°C° 0.1 mm 2 m/s 758 mmHg 66%
    12:00 +31°C° 0.6 mm 3 m/s 757 mmHg 67%
    13:00 +31°C° 0.6 mm 3 m/s 756 mmHg 68%
    14:00 +31°C° 0.6 mm 3 m/s 755 mmHg 69%
    15:00 +30°C° 0.5 mm 3 m/s 755 mmHg 71%
    16:00 +30°C° 0.5 mm 3 m/s 754 mmHg 73%
    17:00 +29°C° 0.5 mm 3 m/s 754 mmHg 74%
    18:00 +28°C° 0.2 mm 2 m/s 755 mmHg 80%
    19:00 +27°C° 0.2 mm 2 m/s 755 mmHg 86%
    20:00 +25°C° 0.2 mm 1 m/s 756 mmHg 93%
    21:00 +25°C° 0 mm 1 m/s 756 mmHg 94%
    22:00 +25°C° 0 mm 1 m/s 756 mmHg 96%
    23:00 +25°C° 0 mm 1 m/s 757 mmHg 97%

    20 Decembrie, Joi

    Timp Temperatura Precipitaţii Vânt Presiune Umiditate
    00:00 +25°C° 0.1 mm 1 m/s 756 mmHg 97%
    01:00 +24°C° 0.1 mm 1 m/s 756 mmHg 98%
    02:00 +24°C° 0.1 mm 1 m/s 755 mmHg 98%
    03:00 +24°C° 0.2 mm 1 m/s 755 mmHg 98%
    04:00 +24°C° 0.2 mm 1 m/s 755 mmHg 98%
    05:00 +24°C° 0.2 mm 1 m/s 756 mmHg 98%
    06:00 +25°C° 0.2 mm 1 m/s 756 mmHg 95%
    07:00 +26°C° 0.2 mm 1 m/s 757 mmHg 92%
    08:00 +26°C° 0.2 mm 2 m/s 757 mmHg 90%
    09:00 +27°C° 0.6 mm 2 m/s 757 mmHg 86%
    10:00 +28°C° 0.6 mm 3 m/s 757 mmHg 82%
    11:00 +29°C° 0.6 mm 3 m/s 757 mmHg 79%
    12:00 +29°C° 0.8 mm 3 m/s 757 mmHg 79%
    13:00 +29°C° 0.8 mm 3 m/s 756 mmHg 80%
    14:00 +29°C° 0.8 mm 3 m/s 755 mmHg 80%
    15:00 +29°C° 0.5 mm 3 m/s 755 mmHg 82%
    16:00 +28°C° 0.5 mm 3 m/s 755 mmHg 83%
    17:00 +28°C° 0.5 mm 3 m/s 754 mmHg 85%
    18:00 +27°C° 0 mm 2 m/s 755 mmHg 88%
    19:00 +26°C° 0 mm 2 m/s 755 mmHg 92%
    20:00 +25°C° 0 mm 1 m/s 756 mmHg 96%
    21:00 +25°C° 0 mm 1 m/s 756 mmHg 96%
    22:00 +25°C° 0 mm 1 m/s 756 mmHg 97%
    23:00 +25°C° 0 mm 1 m/s 756 mmHg 97%

    21 Decembrie, Vineri

    Timp Temperatura Precipitaţii Vânt Presiune Umiditate
    00:00 +24°C° 0.1 mm 1 m/s 756 mmHg 97%
    01:00 +24°C° 0.1 mm 1 m/s 756 mmHg 98%
    02:00 +24°C° 0.1 mm 1 m/s 755 mmHg 98%
    03:00 +24°C° 0.1 mm 1 m/s 755 mmHg 98%
    04:00 +24°C° 0.1 mm 1 m/s 755 mmHg 97%
    05:00 +24°C° 0.1 mm 1 m/s 755 mmHg 97%
    06:00 +25°C° 0.1 mm 1 m/s 756 mmHg 95%
    07:00 +25°C° 0.1 mm 1 m/s 757 mmHg 93%
    08:00 +26°C° 0.1 mm 1 m/s 757 mmHg 91%
    09:00 +28°C° 0.2 mm 2 m/s 757 mmHg 82%
    10:00 +30°C° 0.2 mm 2 m/s 757 mmHg 72%
    11:00 +31°C° 0.2 mm 3 m/s 757 mmHg 63%
    12:00 +33°C° 0 mm 3 m/s 756 mmHg 58%
    13:00 +34°C° 0 mm 3 m/s 756 mmHg 54%
    14:00 +35°C° 0 mm 3 m/s 755 mmHg 50%
    15:00 +34°C° 0 mm 3 m/s 755 mmHg 53%
    16:00 +33°C° 0 mm 3 m/s 754 mmHg 55%
    17:00 +33°C° 0 mm 3 m/s 754 mmHg 58%
    18:00 +30°C° 0 mm 3 m/s 755 mmHg 66%
    19:00 +28°C° 0 mm 2 m/s 755 mmHg 73%
    20:00 +26°C° 0 mm 2 m/s 756 mmHg 80%
    21:00 +26°C° 0 mm 2 m/s 756 mmHg 85%
    22:00 +25°C° 0 mm 2 m/s 756 mmHg 89%
    23:00 +25°C° 0 mm 1 m/s 756 mmHg 93%
    Arată mai mult